sat.trackr.live / text

‹ back to catalog

STARLINK-31246

NORAD 58835 · 2024-017K

PAYLOAD ACTIVE UNKNOWN

§ Identity

Operator
Country
US
Launch date
2024-01-24
Launch site
AFWTR
Launch vehicle
Mass (kg)
RCS (m²)

Purposes: comms

External: N2YO · Heavens-Above · Gunter

§ Orbital elements

Epoch: 2026-09-20T11:52:24.794688Z

Period
93.85 min
Inclination
53.1573°
Eccentricity
0.0002012
Mean motion
15.34390531 rev/d
Perigee alt
461.4 km
Apogee alt
464.1 km
Semi-major
6,840.9 km
B*
4.4213e-5
RAAN
17.9197°
Arg perigee
111.9667°
Mean anomaly
248.1550°
Rev number
14,990

§ Raw data

STARLINK-312461 58835U 24017K   26263.49473142  .00001117  00000+0  44213-4 0  99932 58835  53.1573  17.9197 0002012 111.9667 248.1550 15.34390531149907

JSON: /api/v1/satellites/58835 · /tle

For live sub-satellite position, see the globe view (requires WebGL).

§ Visibility from observer

Set your observer location to see the next 7 days of passes ≥ 10°. The values pass through the URL so the page stays shareable.

No JS? Fill the form by hand. The geolocation button needs JavaScript.